When you browse on this site, cookies collect data to enhance your experience and personalize the content and advertising you see.
Visit our Privacy Policy to learn more. By continuing to use the site, you agree to this use of cookies and data.
  • en Suisse
  • Liste des pays
  • À 7 jours
  • Température de l'eau
  • Carte satellitaire
  • Carte météo
  • Widgets météo
  • user-avatar
    Se connecter

    Météo par heure à Tolna

    Ce jour, 16 Février, Samedi

    Heure Température Précipitation Vent Pression Humidité
    00:00 +5°C° 0 mm 1 m/s 766 mmHg 83%
    01:00 +4°C° 0 mm 1 m/s 766 mmHg 86%
    02:00 +3°C° 0 mm 2 m/s 766 mmHg 87%
    03:00 +3°C° 0 mm 2 m/s 766 mmHg 88%
    04:00 +3°C° 0 mm 2 m/s 766 mmHg 89%
    05:00 +2°C° 0 mm 2 m/s 766 mmHg 90%
    06:00 +2°C° 0 mm 2 m/s 766 mmHg 90%
    07:00 +2°C° 0 mm 2 m/s 766 mmHg 90%
    08:00 +4°C° 0 mm 2 m/s 766 mmHg 84%
    09:00 +5°C° 0 mm 2 m/s 766 mmHg 78%
    10:00 +7°C° 0 mm 2 m/s 766 mmHg 71%
    11:00 +8°C° 0 mm 2 m/s 766 mmHg 66%
    12:00 +9°C° 0 mm 2 m/s 765 mmHg 61%
    13:00 +10°C° 0 mm 2 m/s 765 mmHg 55%
    14:00 +10°C° 0 mm 2 m/s 765 mmHg 55%
    15:00 +10°C° 0 mm 2 m/s 765 mmHg 55%
    16:00 +11°C° 0 mm 1 m/s 764 mmHg 55%
    17:00 +10°C° 0 mm 1 m/s 764 mmHg 60%
    18:00 +9°C° 0 mm 1 m/s 764 mmHg 64%
    19:00 +8°C° 0 mm 1 m/s 764 mmHg 68%
    20:00 +7°C° 0 mm 1 m/s 764 mmHg 70%
    21:00 +7°C° 0 mm 1 m/s 764 mmHg 71%
    22:00 +7°C° 0 mm 1 m/s 764 mmHg 72%
    23:00 +6°C° 0 mm 1 m/s 764 mmHg 73%

    Demain, 17 Février, Dimanche

    Heure Température Précipitation Vent Pression Humidité
    00:00 +6°C° 0 mm 1 m/s 764 mmHg 74%
    01:00 +6°C° 0 mm 1 m/s 764 mmHg 75%
    02:00 +5°C° 0 mm 1 m/s 764 mmHg 76%
    03:00 +5°C° 0 mm 1 m/s 763 mmHg 77%
    04:00 +5°C° 0 mm 1 m/s 763 mmHg 78%
    05:00 +5°C° 0 mm 1 m/s 763 mmHg 79%
    06:00 +4°C° 0 mm 1 m/s 763 mmHg 79%
    07:00 +4°C° 0 mm 1 m/s 763 mmHg 80%
    08:00 +6°C° 0 mm 1 m/s 763 mmHg 73%
    09:00 +7°C° 0 mm 1 m/s 764 mmHg 66%
    10:00 +9°C° 0 mm 1 m/s 764 mmHg 59%
    11:00 +10°C° 0 mm 1 m/s 763 mmHg 55%
    12:00 +11°C° 0 mm 1 m/s 763 mmHg 51%
    13:00 +12°C° 0 mm 1 m/s 763 mmHg 46%
    14:00 +13°C° 0 mm 1 m/s 762 mmHg 47%
    15:00 +13°C° 0 mm 1 m/s 762 mmHg 49%
    16:00 +12°C° 0 mm 0 m/s 761 mmHg 50%
    17:00 +11°C° 0 mm 0 m/s 761 mmHg 53%
    18:00 +10°C° 0 mm 1 m/s 761 mmHg 56%
    19:00 +9°C° 0 mm 1 m/s 761 mmHg 60%
    20:00 +8°C° 0 mm 1 m/s 761 mmHg 61%
    21:00 +8°C° 0 mm 1 m/s 761 mmHg 62%
    22:00 +8°C° 0 mm 1 m/s 761 mmHg 64%
    23:00 +7°C° 0 mm 1 m/s 761 mmHg 65%

    Après-demain, 18 Février, Lundi

    Heure Température Précipitation Vent Pression Humidité
    00:00 +7°C° 0 mm 1 m/s 761 mmHg 66%
    01:00 +5°C° 0 mm 0 m/s 761 mmHg 67%
    02:00 +5°C° 0 mm 0 m/s 761 mmHg 67%
    03:00 +5°C° 0 mm 0 m/s 761 mmHg 68%
    04:00 +4°C° 0 mm 0 m/s 760 mmHg 69%
    05:00 +4°C° 0 mm 0 m/s 760 mmHg 69%
    06:00 +4°C° 0 mm 0 m/s 760 mmHg 70%
    07:00 +5°C° 0 mm 1 m/s 760 mmHg 70%
    08:00 +6°C° 0 mm 1 m/s 760 mmHg 64%
    09:00 +8°C° 0 mm 1 m/s 761 mmHg 58%
    10:00 +10°C° 0 mm 1 m/s 761 mmHg 52%
    11:00 +11°C° 0 mm 1 m/s 760 mmHg 49%
    12:00 +12°C° 0 mm 1 m/s 760 mmHg 45%
    13:00 +13°C° 0 mm 1 m/s 760 mmHg 42%
    14:00 +13°C° 0 mm 1 m/s 759 mmHg 43%
    15:00 +13°C° 0 mm 1 m/s 759 mmHg 44%
    16:00 +13°C° 0 mm 1 m/s 759 mmHg 45%
    17:00 +12°C° 0 mm 1 m/s 758 mmHg 50%
    18:00 +11°C° 0 mm 1 m/s 758 mmHg 54%
    19:00 +8°C° 0 mm 2 m/s 758 mmHg 58%
    20:00 +8°C° 0 mm 2 m/s 758 mmHg 61%
    21:00 +7°C° 0 mm 2 m/s 759 mmHg 63%
    22:00 +7°C° 0 mm 2 m/s 759 mmHg 66%
    23:00 +6°C° 0 mm 2 m/s 758 mmHg 68%

    19 Février, Mardi

    Heure Température Précipitation Vent Pression Humidité
    00:00 +6°C° 0 mm 2 m/s 758 mmHg 69%
    01:00 +6°C° 0 mm 2 m/s 758 mmHg 71%
    02:00 +5°C° 0 mm 2 m/s 758 mmHg 73%
    03:00 +5°C° 0 mm 2 m/s 758 mmHg 75%
    04:00 +4°C° 0 mm 2 m/s 758 mmHg 76%
    05:00 +4°C° 0 mm 2 m/s 758 mmHg 78%
    06:00 +4°C° 0 mm 2 m/s 758 mmHg 80%
    07:00 +4°C° 0 mm 2 m/s 758 mmHg 82%
    08:00 +5°C° 0 mm 2 m/s 758 mmHg 75%
    09:00 +7°C° 0 mm 2 m/s 758 mmHg 68%
    10:00 +9°C° 0 mm 2 m/s 758 mmHg 61%
    11:00 +10°C° 0 mm 2 m/s 758 mmHg 55%
    12:00 +13°C° 0 mm 2 m/s 758 mmHg 50%
    13:00 +13°C° 0 mm 3 m/s 757 mmHg 44%
    14:00 +13°C° 0 mm 3 m/s 757 mmHg 46%
    15:00 +13°C° 0 mm 3 m/s 757 mmHg 47%
    16:00 +14°C° 0 mm 2 m/s 757 mmHg 48%
    17:00 +12°C° 0 mm 2 m/s 757 mmHg 53%
    18:00 +10°C° 0 mm 2 m/s 757 mmHg 59%
    19:00 +9°C° 0 mm 2 m/s 757 mmHg 64%
    20:00 +8°C° 0 mm 2 m/s 757 mmHg 65%
    21:00 +7°C° 0 mm 2 m/s 757 mmHg 67%
    22:00 +7°C° 0 mm 2 m/s 758 mmHg 68%
    23:00 +7°C° 0 mm 2 m/s 758 mmHg 67%

    20 Février, Mercredi

    Heure Température Précipitation Vent Pression Humidité
    00:00 +7°C° 0 mm 2 m/s 758 mmHg 67%
    01:00 +6°C° 0 mm 2 m/s 758 mmHg 66%
    02:00 +6°C° 0 mm 2 m/s 758 mmHg 65%
    03:00 +6°C° 0 mm 2 m/s 758 mmHg 65%
    04:00 +6°C° 0 mm 2 m/s 758 mmHg 64%
    05:00 +6°C° 0 mm 2 m/s 758 mmHg 67%
    06:00 +5°C° 0 mm 2 m/s 759 mmHg 69%
    07:00 +5°C° 0 mm 2 m/s 759 mmHg 71%
    08:00 +7°C° 0 mm 2 m/s 759 mmHg 67%
    09:00 +9°C° 0 mm 2 m/s 760 mmHg 62%
    10:00 +12°C° 0 mm 2 m/s 760 mmHg 57%
    11:00 +13°C° 0 mm 2 m/s 760 mmHg 54%
    12:00 +14°C° 0 mm 2 m/s 760 mmHg 50%
    13:00 +15°C° 0 mm 2 m/s 759 mmHg 47%
    14:00 +15°C° 0 mm 2 m/s 759 mmHg 47%
    15:00 +15°C° 0 mm 2 m/s 759 mmHg 47%
    16:00 +15°C° 0 mm 2 m/s 759 mmHg 46%
    17:00 +13°C° 0 mm 2 m/s 759 mmHg 52%
    18:00 +12°C° 0 mm 2 m/s 759 mmHg 57%
    19:00 +9°C° 0 mm 2 m/s 759 mmHg 62%
    20:00 +9°C° 0 mm 2 m/s 759 mmHg 65%
    21:00 +8°C° 0 mm 2 m/s 760 mmHg 69%
    22:00 +8°C° 0 mm 2 m/s 760 mmHg 72%
    23:00 +8°C° 0 mm 2 m/s 760 mmHg 74%

    21 Février, Jeudi

    Heure Température Précipitation Vent Pression Humidité
    00:00 +7°C° 0 mm 2 m/s 760 mmHg 76%
    01:00 +7°C° 0 mm 2 m/s 760 mmHg 79%
    02:00 +7°C° 0 mm 2 m/s 760 mmHg 79%
    03:00 +7°C° 0 mm 2 m/s 760 mmHg 79%
    04:00 +6°C° 0 mm 2 m/s 760 mmHg 79%
    05:00 +6°C° 0 mm 2 m/s 760 mmHg 79%
    06:00 +6°C° 0 mm 2 m/s 760 mmHg 79%
    07:00 +6°C° 0 mm 2 m/s 761 mmHg 79%
    08:00 +8°C° 0 mm 2 m/s 761 mmHg 73%
    09:00 +9°C° 0 mm 3 m/s 761 mmHg 66%
    10:00 +11°C° 0 mm 3 m/s 761 mmHg 60%
    11:00 +12°C° 0 mm 3 m/s 761 mmHg 56%
    12:00 +13°C° 0 mm 3 m/s 761 mmHg 51%
    13:00 +14°C° 0 mm 4 m/s 760 mmHg 47%
    14:00 +14°C° 0 mm 3 m/s 760 mmHg 48%
    15:00 +14°C° 0 mm 3 m/s 760 mmHg 48%
    16:00 +14°C° 0 mm 3 m/s 759 mmHg 49%
    17:00 +14°C° 0 mm 2 m/s 760 mmHg 54%
    18:00 +12°C° 0 mm 2 m/s 760 mmHg 58%
    19:00 +10°C° 0 mm 2 m/s 760 mmHg 63%
    20:00 +9°C° 0 mm 2 m/s 760 mmHg 65%
    21:00 +9°C° 0 mm 2 m/s 760 mmHg 68%
    22:00 +9°C° 0 mm 2 m/s 760 mmHg 70%
    23:00 +8°C° 0 mm 2 m/s 760 mmHg 71%
    Voir plus